• In Russia
  • List of Countries
  • For 7 days
  • Water Temperature
  • Satellite Maps
  • Weather Map
  • Weather Widgets
  • user-avatar
    Login

    Hourly Weather Igls

    Today, 6 December, Tuesday

    Time Temperature Precipitation Wind Pressure Humidity
    00:00 -6°C° 0 mm 1 mps 688 mmHg 67%
    01:00 -6°C° 0 mm 1 mps 688 mmHg 67%
    02:00 -6°C° 0 mm 1 mps 688 mmHg 65%
    03:00 -4°C° 0 mm 1 mps 689 mmHg 63%
    04:00 -6°C° 0 mm 2 mps 689 mmHg 61%
    05:00 -5°C° 0 mm 2 mps 689 mmHg 61%
    06:00 -5°C° 0 mm 2 mps 689 mmHg 62%
    07:00 -5°C° 0 mm 2 mps 690 mmHg 68%
    08:00 -3°C° 0 mm 2 mps 690 mmHg 67%
    09:00 +1°C° 0 mm 1 mps 691 mmHg 65%
    10:00 +3°C° 0 mm 1 mps 691 mmHg 64%
    11:00 +4°C° 0 mm 1 mps 691 mmHg 64%
    12:00 +6°C° 0 mm 1 mps 692 mmHg 65%
    13:00 +7°C° 0 mm 1 mps 692 mmHg 65%
    14:00 +5°C° 0 mm 1 mps 691 mmHg 70%
    15:00 +3°C° 0 mm 1 mps 691 mmHg 75%
    16:00 +1°C° 0 mm 1 mps 690 mmHg 80%
    17:00 0°C° 0 mm 1 mps 690 mmHg 78%
    18:00 -1°C° 0 mm 1 mps 690 mmHg 76%
    19:00 -2°C° 0 mm 1 mps 690 mmHg 73%
    20:00 -2°C° 0 mm 1 mps 691 mmHg 70%
    21:00 -3°C° 0 mm 1 mps 691 mmHg 66%
    22:00 -3°C° 0 mm 1 mps 691 mmHg 62%
    23:00 -3°C° 0 mm 1 mps 691 mmHg 61%

    Tomorrow, 7 December, Wednesday

    Time Temperature Precipitation Wind Pressure Humidity
    00:00 -3°C° 0 mm 1 mps 691 mmHg 59%
    01:00 -3°C° 0 mm 1 mps 691 mmHg 58%
    02:00 -3°C° 0 mm 1 mps 691 mmHg 56%
    03:00 -3°C° 0 mm 1 mps 691 mmHg 55%
    04:00 -3°C° 0 mm 1 mps 691 mmHg 53%
    05:00 -3°C° 0 mm 1 mps 691 mmHg 52%
    06:00 -3°C° 0 mm 1 mps 691 mmHg 52%
    07:00 -4°C° 0 mm 1 mps 691 mmHg 51%
    08:00 -1°C° 0 mm 1 mps 692 mmHg 51%
    09:00 +2°C° 0 mm 1 mps 693 mmHg 50%
    10:00 +5°C° 0 mm 1 mps 694 mmHg 50%
    11:00 +6°C° 0 mm 1 mps 694 mmHg 53%
    12:00 +6°C° 0 mm 0 mps 694 mmHg 55%
    13:00 +7°C° 0 mm 0 mps 694 mmHg 58%
    14:00 +5°C° 0 mm 0 mps 693 mmHg 60%
    15:00 +2°C° 0 mm 0 mps 692 mmHg 62%
    16:00 -1°C° 0 mm 0 mps 692 mmHg 65%
    17:00 0°C° 0 mm 1 mps 692 mmHg 63%
    18:00 -1°C° 0 mm 1 mps 692 mmHg 62%
    19:00 -1°C° 0 mm 1 mps 692 mmHg 60%
    20:00 -1°C° 0 mm 1 mps 692 mmHg 59%
    21:00 -1°C° 0 mm 1 mps 692 mmHg 58%
    22:00 -1°C° 0 mm 1 mps 692 mmHg 56%
    23:00 -1°C° 0 mm 1 mps 692 mmHg 55%

    Day after tomorrow, 8 December, Thursday

    Time Temperature Precipitation Wind Pressure Humidity
    00:00 0°C° 0 mm 1 mps 692 mmHg 54%
    01:00 0°C° 0 mm 1 mps 692 mmHg 54%
    02:00 0°C° 0 mm 1 mps 692 mmHg 53%
    03:00 0°C° 0 mm 1 mps 692 mmHg 52%
    04:00 0°C° 0 mm 1 mps 692 mmHg 51%
    05:00 0°C° 0 mm 1 mps 692 mmHg 51%
    06:00 +1°C° 0 mm 1 mps 692 mmHg 51%
    07:00 +1°C° 0 mm 1 mps 692 mmHg 51%
    08:00 +3°C° 0 mm 1 mps 693 mmHg 52%
    09:00 +5°C° 0 mm 1 mps 693 mmHg 54%
    10:00 +7°C° 0 mm 1 mps 694 mmHg 55%
    11:00 +8°C° 0 mm 1 mps 694 mmHg 57%
    12:00 +9°C° 0 mm 1 mps 694 mmHg 59%
    13:00 +10°C° 0 mm 1 mps 694 mmHg 61%
    14:00 +8°C° 0 mm 1 mps 693 mmHg 61%
    15:00 +5°C° 0 mm 1 mps 692 mmHg 61%
    16:00 +3°C° 0 mm 1 mps 691 mmHg 60%
    17:00 +2°C° 0 mm 1 mps 691 mmHg 58%
    18:00 +1°C° 0 mm 1 mps 691 mmHg 56%
    19:00 0°C° 0 mm 1 mps 691 mmHg 54%
    20:00 +1°C° 0 mm 1 mps 692 mmHg 53%
    21:00 +1°C° 0 mm 1 mps 692 mmHg 52%
    22:00 +1°C° 0 mm 1 mps 692 mmHg 51%
    23:00 +2°C° 0 mm 1 mps 692 mmHg 49%

    9 December, Friday

    Time Temperature Precipitation Wind Pressure Humidity
    00:00 +2°C° 0 mm 1 mps 692 mmHg 48%
    01:00 +2°C° 0 mm 2 mps 692 mmHg 46%
    02:00 +2°C° 0 mm 2 mps 692 mmHg 47%
    03:00 +2°C° 0 mm 2 mps 692 mmHg 48%
    04:00 +2°C° 0 mm 2 mps 692 mmHg 50%
    05:00 +1°C° 0 mm 2 mps 692 mmHg 49%
    06:00 +1°C° 0 mm 1 mps 692 mmHg 48%
    07:00 +1°C° 0 mm 1 mps 692 mmHg 47%
    08:00 +3°C° 0 mm 1 mps 693 mmHg 48%
    09:00 +5°C° 0 mm 1 mps 693 mmHg 49%
    10:00 +7°C° 0 mm 1 mps 693 mmHg 49%
    11:00 +8°C° 0 mm 1 mps 693 mmHg 53%
    12:00 +9°C° 0 mm 1 mps 693 mmHg 56%
    13:00 +9°C° 0 mm 0 mps 693 mmHg 59%
    14:00 +8°C° 0 mm 1 mps 692 mmHg 58%
    15:00 +5°C° 0 mm 1 mps 691 mmHg 56%
    16:00 +3°C° 0 mm 1 mps 690 mmHg 54%
    17:00 +2°C° 0 mm 1 mps 690 mmHg 54%
    18:00 +1°C° 0 mm 1 mps 690 mmHg 53%
    19:00 +1°C° 0 mm 1 mps 690 mmHg 53%
    20:00 +1°C° 0 mm 1 mps 690 mmHg 53%
    21:00 +1°C° 0 mm 1 mps 690 mmHg 53%
    22:00 0°C° 0 mm 1 mps 690 mmHg 54%
    23:00 +1°C° 0 mm 1 mps 690 mmHg 54%

    10 December, Saturday

    Time Temperature Precipitation Wind Pressure Humidity
    00:00 +1°C° 0 mm 1 mps 689 mmHg 55%
    01:00 +2°C° 0 mm 1 mps 689 mmHg 55%
    02:00 +2°C° 0 mm 1 mps 689 mmHg 56%
    03:00 +2°C° 0 mm 1 mps 689 mmHg 57%
    04:00 +1°C° 0 mm 2 mps 689 mmHg 58%
    05:00 +1°C° 0 mm 2 mps 689 mmHg 60%
    06:00 +1°C° 0 mm 2 mps 689 mmHg 63%
    07:00 +1°C° 0 mm 2 mps 689 mmHg 65%
    08:00 +4°C° 0 mm 1 mps 689 mmHg 65%
    09:00 +6°C° 0 mm 1 mps 690 mmHg 65%
    10:00 +7°C° 0 mm 1 mps 690 mmHg 64%
    11:00 +9°C° 0 mm 1 mps 690 mmHg 66%
    12:00 +10°C° 0 mm 1 mps 690 mmHg 67%
    13:00 +11°C° 0 mm 1 mps 690 mmHg 68%
    14:00 +7°C° 0 mm 0 mps 689 mmHg 71%
    15:00 +4°C° 0 mm 0 mps 688 mmHg 73%
    16:00 +1°C° 0 mm 0 mps 687 mmHg 76%
    17:00 +1°C° 0 mm 0 mps 686 mmHg 75%
    18:00 0°C° 0 mm 0 mps 686 mmHg 75%
    19:00 -1°C° 0 mm 0 mps 686 mmHg 74%
    20:00 +1°C° 0 mm 1 mps 686 mmHg 69%
    21:00 +2°C° 0 mm 1 mps 686 mmHg 64%
    22:00 +2°C° 0 mm 1 mps 686 mmHg 59%
    23:00 +3°C° 0 mm 1 mps 686 mmHg 60%

    11 December, Sunday

    Time Temperature Precipitation Wind Pressure Humidity
    00:00 +2°C° 0 mm 2 mps 686 mmHg 61%
    01:00 +2°C° 0 mm 2 mps 686 mmHg 62%
    02:00 +1°C° 0 mm 2 mps 685 mmHg 63%
    03:00 +1°C° 0 mm 2 mps 685 mmHg 64%
    04:00 +1°C° 0 mm 2 mps 685 mmHg 65%
    05:00 +1°C° 0 mm 2 mps 684 mmHg 65%
    06:00 -1°C° 0 mm 2 mps 684 mmHg 65%
    07:00 +1°C° 0 mm 1 mps 684 mmHg 65%
    08:00 +3°C° 0 mm 1 mps 684 mmHg 64%
    09:00 +5°C° 0 mm 1 mps 685 mmHg 63%
    10:00 +7°C° 0 mm 1 mps 685 mmHg 63%
    11:00 +7°C° 0 mm 1 mps 685 mmHg 66%
    12:00 +8°C° 0 mm 1 mps 685 mmHg 69%
    13:00 +8°C° 0 mm 1 mps 684 mmHg 72%
    14:00 +7°C° 0.2 mm 1 mps 684 mmHg 76%
    15:00 +7°C° 0.2 mm 1 mps 684 mmHg 79%
    16:00 +5°C° 0.2 mm 2 mps 684 mmHg 83%
    17:00 +4°C° 0.2 mm 2 mps 684 mmHg 86%
    18:00 +4°C° 0.2 mm 2 mps 685 mmHg 88%
    19:00 +3°C° 0.2 mm 2 mps 685 mmHg 91%
    20:00 +4°C° 0.4 mm 1 mps 685 mmHg 93%
    21:00 +4°C° 0.4 mm 1 mps 685 mmHg 94%
    22:00 +4°C° 0.4 mm 1 mps 685 mmHg 95%
    23:00 +4°C° 0.2 mm 1 mps 685 mmHg 96%
    Show more